EW0482 Weather Reports


Display with metric or nautical units.
time (UTC)temp
F
wind
direction
speed
MPH
gust
MPH
rain 1hr
in
rain 24hr
in
rain mn
in
humidity
%
barometer
mb
20260901213107 76 244 1.0 8.0 0.00 0.00 0.00 67 1003.6
20260901211558 76 213 0.0 10.0 0.00 0.00 0.00 68 1003.7
20260901210057 76 246 4.0 9.0 0.00 0.00 0.00 67 1003.8
20260901204556 77 249 3.0 8.0 0.00 0.00 0.00 66 1004.0
20260901203056 77 227 0.0 6.0 0.00 0.00 0.00 65 1004.1
20260901201601 78 259 1.0 6.0 0.00 0.00 0.00 65 1004.2
20260901200055 78 261 0.0 4.0 0.00 0.00 0.00 64 1004.4
20260901194602 78 259 3.0 8.0 0.00 0.00 0.00 64 1004.5
20260901193105 79 250 0.0 6.0 0.00 0.00 0.00 65 1004.5
20260901191554 80 259 1.0 6.0 0.00 0.00 0.00 62 1004.6
20260901190052 80 238 0.0 4.0 0.00 0.00 0.00 61 1004.6
20260901184557 80 232 0.0 5.0 0.00 0.00 0.00 64 1004.7
20260901183049 80 182 0.0 2.0 0.00 0.00 0.00 64 1004.7
20260901181547 79 248 0.0 4.0 0.00 0.00 0.00 65 1004.8
20260901180043 78 253 0.0 4.0 0.00 0.00 0.00 66 1004.8
20260901174542 76 256 0.0 4.0 0.00 0.00 0.00 70 1004.8
20260901173040 77 216 0.0 3.0 0.00 0.00 0.00 68 1004.9
20260901171547 76 191 0.0 2.0 0.00 0.00 0.00 71 1004.7
20260901170057 74 218 0.0 3.0 0.00 0.00 0.00 74 1004.6
20260901164537 74 134 0.0 2.0 0.00 0.00 0.00 74 1004.6
20260901163039 73 242 0.0 1.0 0.00 0.00 0.00 77 1004.7
20260901161532 72 242 0.0 1.0 0.00 0.00 0.00 77 1004.8
20260901160027 72 241 0.0 1.0 0.00 0.00 0.00 78 1004.7
20260901154524 72 240 0.0 0.0 0.00 0.00 0.00 78 1004.6
20260901153022 71 240 0.0 2.0 0.00 0.00 0.00 79 1004.5
20260901151519 70 249 0.0 1.0 0.00 0.00 0.00 80 1004.6
20260901150015 68 249 0.0 1.0 0.00 0.00 0.00 83 1004.4
20260901144511 67 249 0.0 1.0 0.00 0.00 0.00 85 1004.1
20260901143008 66 249 0.0 0.0 0.00 0.00 0.00 79 1004.0
20260901141504 64 249 0.0 0.0 0.00 0.00 0.00 80 1003.7
20260901140007 63 249 0.0 0.0 0.00 0.00 0.00 82 1003.6
20260901134502 62 249 0.0 0.0 0.00 0.00 0.00 83 1003.7
20260901133005 62 249 0.0 0.0 0.00 0.00 0.00 84 1003.5
20260901131501 62 249 0.0 0.0 0.00 0.00 0.00 84 1003.4
20260901130100 62 249 0.0 0.0 0.00 0.00 0.00 84 1003.3
20260901124608 62 249 0.0 0.0 0.00 0.00 0.00 85 1003.2
20260901123112 62 249 0.0 0.0 0.00 0.00 0.00 85 1003.3
20260901121606 62 249 0.0 0.0 0.00 0.00 0.00 85 1003.2
20260901120109 63 249 0.0 0.0 0.00 0.00 0.00 85 1003.2
20260901114559 62 249 0.0 0.0 0.00 0.00 0.00 86 1003.1
20260901113101 62 249 0.0 0.0 0.00 0.00 0.00 86 1003.1
20260901111556 62 249 0.0 0.0 0.00 0.00 0.00 86 1003.2
20260901110058 63 249 0.0 0.0 0.00 0.00 0.00 86 1003.2
20260901104556 63 249 0.0 0.0 0.00 0.00 0.00 86 1003.2
20260901103051 63 249 0.0 0.0 0.00 0.00 0.00 87 1003.2
20260901101550 63 249 0.0 0.0 0.00 0.00 0.00 87 1003.5
20260901100053 64 249 0.0 0.0 0.00 0.00 0.00 87 1003.4
20260901094551 64 249 0.0 0.0 0.00 0.00 0.00 87 1003.4
20260901093048 63 249 0.0 0.0 0.00 0.00 0.00 87 1003.3
20260901091547 64 249 0.0 0.0 0.00 0.00 0.00 87 1003.3
20260901090046 63 249 0.0 0.0 0.00 0.00 0.00 87 1003.3
20260901084556 63 249 0.0 0.0 0.00 0.00 0.00 87 1003.4
20260901083044 64 249 0.0 0.0 0.00 0.00 0.00 87 1003.5
20260901081542 64 249 0.0 0.0 0.00 0.00 0.00 87 1003.6
20260901080050 64 249 0.0 0.0 0.00 0.00 0.00 87 1003.4
20260901074553 64 249 0.0 0.0 0.00 0.00 0.00 87 1003.5
20260901073039 64 249 0.0 0.0 0.00 0.00 0.00 86 1003.6
20260901071537 65 249 0.0 0.0 0.00 0.00 0.00 86 1003.7
20260901070036 65 249 0.0 0.0 0.00 0.00 0.00 85 1003.6
20260901064531 65 249 0.0 0.0 0.00 0.00 0.00 85 1003.4
20260901063028 66 249 0.0 0.0 0.00 0.00 0.00 85 1003.2
20260901061526 66 249 0.0 0.0 0.00 0.00 0.00 84 1003.1
20260901060023 66 249 0.0 0.0 0.00 0.00 0.00 83 1002.9
20260901054523 67 249 0.0 0.0 0.00 0.00 0.00 83 1002.9
20260901053022 67 249 0.0 2.0 0.00 0.00 0.00 83 1002.9
20260901051522 67 249 0.0 0.0 0.00 0.00 0.00 84 1002.8
20260901050024 67 249 0.0 1.0 0.00 0.00 0.00 84 1002.7
20260901044528 67 254 0.0 0.0 0.00 0.00 0.00 84 1002.7
20260901043025 67 253 0.0 1.0 0.00 0.00 0.00 84 1002.5
20260901041520 68 253 0.0 1.0 0.00 0.00 0.00 84 1002.4
20260901040020 67 256 0.0 0.0 0.00 0.00 0.00 84 1002.2
20260901034533 67 256 0.0 1.0 0.00 0.00 0.00 84 1002.0
20260901033018 67 256 0.0 3.0 0.00 0.00 0.00 84 1001.8
20260901031519 68 259 0.0 3.0 0.00 0.00 0.00 84 1001.6
20260901030018 68 261 1.0 5.0 0.00 0.00 0.00 84 1001.6
20260901024518 69 253 0.0 6.0 0.00 0.00 0.00 83 1001.4
20260901023017 69 257 3.0 8.0 0.00 0.00 0.00 82 1001.4
20260901021521 70 248 0.0 6.0 0.00 0.00 0.00 81 1001.5
20260901020021 71 247 1.0 6.0 0.00 0.00 0.00 80 1001.4
20260901014516 72 251 0.0 7.0 0.00 0.00 0.00 79 1001.4
20260901013016 72 244 0.0 6.0 0.00 0.00 0.00 79 1001.4
20260901011516 73 263 2.0 7.0 0.00 0.00 0.00 77 1001.5
20260901010015 75 171 0.0 9.0 0.00 0.00 0.00 75 1001.6
20260901004515 75 244 2.0 8.0 0.00 0.00 0.00 73 1001.6
20260901003022 76 252 0.0 9.0 0.00 0.00 0.00 73 1001.5
20260901001518 76 243 1.0 7.0 0.00 0.00 0.00 72 1001.6
20260901000012 77 244 2.0 10.0 0.00 0.00 0.00 71 1001.6
20260831234513 79 257 0.0 10.0 0.00 0.00 0.00 68 1001.6
20260831233011 79 180 0.0 6.0 0.00 0.00 0.00 66 1001.6
20260831231511 79 244 2.0 8.0 0.00 0.00 0.00 68 1001.5
20260831230012 79 240 1.0 8.0 0.00 0.00 0.00 70 1001.4
20260831224510 78 214 2.0 10.0 0.00 0.00 0.00 68 1001.6
20260831223009 78 269 4.0 10.0 0.00 0.00 0.00 69 1001.7
20260831221521 80 241 5.0 11.0 0.00 0.00 0.00 66 1001.9
20260831220009 80 179 0.0 5.0 0.00 0.00 0.00 60 1002.1
20260831214507 80 185 0.0 6.0 0.00 0.00 0.00 64 1002.1